This is the latest recevied weather packets stored in our database for station/object AI5YA-13. If no packets are shown the sender has not sent any weather packets the latest 10 day(s).
| Time | Temp. | Humidity | Pressure | Rain* | Wind** | Luminosity | Snow |
|---|---|---|---|---|---|---|---|
| 1777648634 | 10.56° C | 94% | 1017.3 hPa | 1.78 mm | - | 77 W/m² | - |
| 1777648330 | 10.56° C | 94% | 1017.4 hPa | 1.27 mm | - | 63 W/m² | - |
| 1777648027 | 10.56° C | 94% | 1017.3 hPa | 3.05 mm | - | 27 W/m² | - |
| 1777647723 | 10.56° C | 94% | 1017.3 hPa | 3.05 mm | - | 28 W/m² | - |
| 1777647419 | 10.56° C | 94% | 1017 hPa | 4.83 mm | - | 41 W/m² | - |
| 1777647117 | 10.56° C | 94% | 1016.8 hPa | 3.05 mm | - | 31 W/m² | - |
| 1777646813 | 11.11° C | 94% | 1016.8 hPa | 4.32 mm | - | 48 W/m² | - |
| 1777646508 | 11.11° C | 94% | 1016.8 hPa | 6.1 mm | - | 35 W/m² | - |
| 1777646205 | 11.11° C | 94% | 1016.9 hPa | 6.1 mm | - | 12 W/m² | - |
| 1777645903 | 11.11° C | 94% | 1017.1 hPa | 6.6 mm | - | 16 W/m² | - |
| 1777645599 | 11.11° C | 94% | 1016.7 hPa | 6.1 mm | - | 12 W/m² | - |
| 1777645295 | 11.11° C | 94% | 1016.5 hPa | 4.32 mm | - | 9 W/m² | - |
| 1777644991 | 11.11° C | 94% | 1016.5 hPa | 4.32 mm | - | 13 W/m² | - |
| 1777644689 | 11.11° C | 94% | 1016.4 hPa | 6.1 mm | - | 23 W/m² | - |
| 1777644384 | 11.11° C | 94% | 1015.9 hPa | 7.11 mm | - | 28 W/m² | - |
| 1777644082 | 11.11° C | 93% | 1015.9 hPa | 6.1 mm | - | 23 W/m² | - |
| 1777643778 | 11.11° C | 93% | 1015.9 hPa | 4.83 mm | - | 13 W/m² | - |
| 1777643476 | 11.11° C | 93% | 1015.9 hPa | 3.05 mm | - | 12 W/m² | - |
| 1777643172 | 11.11° C | 93% | 1015.4 hPa | 3.05 mm | - | 11 W/m² | - |
| 1777642869 | 11.11° C | 93% | 1015.5 hPa | 1.78 mm | - | 11 W/m² | - |
| 1777642566 | 11.11° C | 93% | 1014.7 hPa | 0 mm | - | 10 W/m² | - |
| 1777642262 | 11.11° C | 94% | 1014.6 hPa | 0 mm | - | 8 W/m² | - |
| 1777641960 | 11.11° C | 94% | 1014.5 hPa | 1.27 mm | - | 9 W/m² | - |
| 1777641655 | 11.67° C | 94% | 1014.5 hPa | 1.27 mm | - | 10 W/m² | - |
| 1777641350 | 11.67° C | 94% | 1014.1 hPa | 0 mm | - | 7 W/m² | - |
* Rain latest hour (hover to see other rain measurements)
** Current wind speed in m/s (hover to see current wind gust speed)